DG1GMY-13 Weather Reports


time (UTC)temp
C
wind
direction
speed
KPH
gust
KPH
rain 1hr
cm
rain 24hr
cm
rain mn
cm
humidity
%
barometer
mb
20260507133015 15 0.0 0.0 0.00 0.00 0.00 68 1016.8
20260507130009 15 0.0 0.0 0.00 0.00 0.00 70 1016.7
20260507123003 14 0.0 0.0 0.00 0.00 0.00 76 1016.8
20260507115958 13 0.0 0.0 0.00 0.00 0.00 71 1016.8
20260507112952 12 0.0 0.0 0.00 0.00 0.00 87 1016.5
20260507105946 13 0.0 0.0 0.00 0.00 0.00 80 1016.5
20260507102940 13 0.0 0.0 0.00 0.00 0.00 80 1016.6
20260507095934 13 0.0 0.0 0.00 0.00 0.00 83 1016.4
20260507092928 13 0.0 0.0 0.00 0.00 0.00 86 1016.3
20260507085922 12 0.0 0.0 0.00 0.00 0.00 98 1016.2
20260507082916 12 0.0 0.0 0.00 0.00 0.00 100 1016.0
20260507075911 12 0.0 0.0 0.00 0.00 0.00 100 1016.0
20260507072904 11 0.0 0.0 0.00 0.00 0.00 100 1015.7
20260507065858 11 0.0 0.0 0.00 0.00 0.00 100 1015.5
20260507062852 11 0.0 0.0 0.00 0.00 0.00 100 1015.3
20260507055846 10 0.0 0.0 0.00 0.00 0.00 100 1015.0
20260507052840 10 0.0 0.0 0.00 0.00 0.00 100 1014.8
20260507045834 10 0.0 0.0 0.00 0.00 0.00 100 1014.4
20260507042828 9 0.0 0.0 0.00 0.00 0.00 100 1014.2
20260507035822 8 0.0 0.0 0.00 0.00 0.00 100 1013.9
20260507032816 8 0.0 0.0 0.00 0.00 0.00 100 1013.7
20260507025810 8 0.0 0.0 0.00 0.00 0.00 100 1013.4
20260507022804 8 0.0 0.0 0.00 0.00 0.00 100 1013.3
20260507015758 8 0.0 0.0 0.00 0.00 0.00 100 1012.9
20260507012752 8 0.0 0.0 0.00 0.00 0.00 100 1012.6
20260507005746 8 0.0 0.0 0.00 0.00 0.00 100 1012.4
20260507002740 8 0.0 0.0 0.00 0.00 0.00 100 1012.3
20260506235734 9 0.0 0.0 0.00 0.00 0.00 100 1012.1
20260506232728 8 0.0 0.0 0.00 0.00 0.00 100 1011.9
20260506225722 9 0.0 0.0 0.00 0.00 0.00 100 1011.6
20260506222717 9 0.0 0.0 0.00 0.00 0.00 100 1011.5
20260506215711 9 0.0 0.0 0.00 0.00 0.00 100 1011.4
20260506212705 9 0.0 0.0 0.00 0.00 0.00 100 1011.3
20260506205659 9 0.0 0.0 0.00 0.00 0.00 100 1011.2
20260506202653 9 0.0 0.0 0.00 0.00 0.00 100 1011.0
20260506195647 9 0.0 0.0 0.00 0.00 0.00 100 1010.7
20260506192641 10 0.0 0.0 0.00 0.00 0.00 100 1010.4
20260506185635 10 0.0 0.0 0.00 0.00 0.00 100 1010.2
20260506182629 10 0.0 0.0 0.00 0.00 0.00 100 1009.7
20260506175623 11 0.0 0.0 0.00 0.00 0.00 100 1009.3
20260506172617 12 0.0 0.0 0.00 0.00 0.00 100 1008.7
20260506165611 12 0.0 0.0 0.00 0.00 0.00 100 1008.6
20260506162605 12 0.0 0.0 0.00 0.00 0.00 100 1008.6
20260506155559 11 0.0 0.0 0.00 0.00 0.00 100 1008.9
20260506152553 11 0.0 0.0 0.00 0.00 0.00 100 1008.9
20260506145547 12 0.0 0.0 0.00 0.00 0.00 100 1008.9
20260506142541 13 0.0 0.0 0.00 0.00 0.00 100 1008.6